RH
87 91 87 86 84 86 90 90 89 89 85 84 82 77 76 80 81 83 90 92 96 98 90 88 90 78 67 64 79 77 73 80 94 88 93 91 93 83 83 70 77 79 88 91 90 86 76 48 48 45 50 69 59 58
88 90 90 90 90 90 90 90 88 85 84 81 82 79 80 81 80 81 94 92 92 99 96 92 89 82 77 75 61 78 72 82 72 90 96 94 92 96 80 83 69 70 72 79 73 74 60 58 49 51 56 60 61 63
81 85 87 90 90 89 88 88 88 88 87 82 79 82 82 82 80 79 97 96 96 98 93 90 84 89 78 80 76 71 89 80 86 84 92 95 89 90 88 84 80 72 67 72 67 65 70 76 78 77 78 73 76 81
83 82 82 82 82 82 83 83 82 81 78 78 80 82 83 82 79 79 95 96 93 97 100 90 78 88 86 88 85 78 67 93 93 95 98 98 93 85 91 72 74 72 68 78 77 86 85 77 80 78 81 80 77 76
86 86 86 85 84 82 82 82 83 82 82 82 82 82 82 82 80 86 95 93 96 96 98 96 82 79 78 96 97 91 81 90 95 96 99 91 93 91 95 87 82 74 71 77 68 64 64 68 81 79 81 83 80 81
85 87 89 90 88 87 88 86 85 84 84 83 83 83 84 82 83 91 97 94 88 93 98 99 90 89 86 93 96 99 85 94 94 90 97 96 89 87 97 91 61 66 71 66 56 71 85 84 82 78 83 84 82 84
88 85 84 85 85 87 91 93 88 86 86 86 85 83 82 84 92 94 96 94 93 92 96 99 98 83 95 96 99 99 95 98 96 96 98 95 95 82 96 84 68 85 84 80 78 77 87 78 87 82 82 83 83 85
86 88 90 94 94 90 93 92 92 90 87 85 86 85 85 84 82 93 96 94 91 95 94 100 98 98 93 99 100 99 100 97 98 99 98 97 98 98 90 82 92 84 81 83 84 81 79 85 85 88 85 85 92 96
90 92 93 94 94 91 90 89 90 92 89 86 83 84 94 91 96 91 93 93 93 91 98 100 100 98 93 99 99 98 98 100 98 100 100 96 100 91 88 92 92 87 84 91 86 85 85 90 92 90 90 92 94 95
92 94 93 93 92 91 91 91 89 91 91 91 91 94 99 97 93 92 100 99 96 98 100 100 98 100 96 100 100 100 100 100 100 99 97 100 98 94 92 90 91 87 83 82 95 98 94 95 95 92 88 85 86 91
93 93 92 92 91 91 91 92 92 88 85 97 98 100 96 93 94 97 99 100 99 99 99 98 98 99 96 98 100 100 100 100 100 99 96 100 99 97 97 94 87 85 80 86 82 81 81 84 88 91 94 95 97 94
91 92 91 90 89 89 90 92 90 93 96 94 95 92 94 93 98 98 99 99 99 99 99 100 100 97 100 97 98 100 100 100 100 97 100 100 99 99 98 97 93 89 86 85 82 83 82 84 83 88 94 96 95 91
89 90 89 89 88 88 89 91 91 94 94 98 95 97 92 99 99 98 98 100 99 100 100 100 100 99 98 95 100 100 100 99 98 99 99 100 99 99 95 89 88 82 83 84 86 87 91 95 96 96 97 96 89 83
86 87 86 88 91 92 91 94 95 97 97 98 99 98 98 98 99 99 100 100 100 100 100 100 100 100 100 99 99 98 100 97 98 97 99 99 100 97 91 88 86 92 94 93 95 95 97 96 95 96 94 88 86 83
88 89 88 90 93 92 94 96 96 97 98 99 96 99 98 100 100 100 100 100 99 100 100 100 99 98 99 98 99 99 97 98 98 98 99 100 99 96 97 96 95 97 98 97 92 93 96 95 89 82 75 74 82 88
93 92 98 95 96 97 95 95 96 97 95 97 98 98 99 99 98 98 98 99 99 99 100 96 98 99 99 99 95 98 94 97 98 99 99 99 99 99 98 98 97 97 96 96 96 95 94 88 85 77 76 79 89 89
84 98 97 97 96 94 93 94 92 93 98 94 98 98 98 98 98 98 98 98 98 100 99 98 95 98 93 96 95 95 97 97 97 99 99 99 99 99 98 98 98 98 96 96 96 91 87 85 81 73 73 69 66 79
96 97 94 94 88 89 95 94 93 90 98 99 97 98 97 97 95 95 97 97 99 98 96 98 90 94 96 96 96 96 96 96 99 99 99 99 99 99 98 98 98 97 97 97 95 94 94 95 89 79 70 72 77 78
95 95 89 85 87 91 91 93 90 96 98 98 96 93 96 93 84 88 92 95 89 88 92 93 92 95 96 96 96 96 96 96 98 98 96 97 98 99 99 98 98 97 96 96 94 93 93 85 79 80 82 84 92 87
78 79 79 86 88 92 87 94 89 93 98 96 88 77 82 84 84 82 78 75 75 81 88 93 95 96 96 96 96 96 96 95 96 95 94 94 95 94 96 95 94 95 93 93 93 94 92 91 90 90 92 93 95 95
76 80 70 78 86 84 93 97 98 99 98 98 99 97 95 80 79 82 83 73 76 92 92 95 96 95 95 94 94 95 93 92 93 94 94 93 94 93 92 93 93 93 93 94 94 94 94 94 93 92 96 97 97 96
91 71 89 77 83 84 87 88 95 97 91 97 93 94 99 98 98 98 83 87 92 94 93 92 91 90 86 89 92 93 94 92 93 91 92 90 92 92 92 94 91 94 94 95 93 95 94 93 94 94 96 97 96 95
76 82 89 82 82 82 89 89 85 85 91 96 92 94 98 99 98 84 97 83 91 91 93 91 86 79 82 80 77 80 78 77 86 89 90 92 91 92 92 92 93 94 94 94 93 93 95 94 94 96 95 94 94 96
69 86 92 91 84 94 91 93 90 92 94 94 96 99 96 100 92 93 98 97 91 86 84 82 79 79 76 79 88 90 90 81 86 89 87 86 90 93 87 86 84 87 88 85 89 94 94 96 93 94 97 99 99 100
83 92 84 88 92 86 92 95 97 93 100 99 96 97 98 93 97 99 97 96 95 96 94 90 86 88 92 93 91 91 88 84 90 92 90 90 94 89 89 88 91 88 85 92 97 99 100 100 100 100 100 100 100 100
96 97 92 98 96 92 98 99 99 100 99 98 98 96 93 94 95 100 93 98 98 97 98 98 97 94 93 92 95 95 98 92 81 92 95 90 90 96 98 99 100 98 96 100 100 100 100 100 100 100 100 100 100 100
97 97 90 83 97 90 96 98 95 96 97 95 99 98 94 100 100 97 95 95 95 96 92 90 87 92 93 91 90 95 95 92 92 92 90 90 92 93 98 100 100 98 96 98 100 100 100 100 100 100 100 100 100 100
99 91 94 95 98 95 100 100 98 99 98 96 88 100 100 100 99 97 96 95 95 86 87 88 88 88 92 94 95 97 98 98 96 95 94 89 94 98 99 100 100 100 100 100 100 100 100 100 100 100 100 100 100 100
100 98 93 100 96 98 98 100 96 89 90 96 100 100 100 91 98 97 95 96 96 93 95 96 98 99 97 96 97 97 95 97 90 99 100 100 100 99 100 100 100 100 100 100 100 100 100 100 100 100 100 100 100 100
96 96 99 100 95 94 100 99 100 100 95 98 91 86 91 97 97 96 96 95 96 100 100 100 100 100 100 100 100 99 100 100 100 99 100 100 100 100 100 100 100 100 100 100 100 100 100 100 100 100 99 99 100 100
98 97 98 98 100 99 100 100 99 97 99 99 100 100 99 100 99 98 98 100 100 100 100 100 100 100 100 100 100 100 100 100 100 100 100 100 100 100 100 100 100 100 100 100 100 100 100 100 100 100 100 100 99 100
100 100 99 100 98 98 98 98 100 100 100 100 100 100 99 99 100 99 99 99 98 100 100 100 100 100 100 100 100 100 100 100 100 100 100 100 100 100 100 100 100 100 100 100 100 100 100 100 100 100 100 100 100 100
98 100 99 100 98 98 98 96 98 99 100 100 100 100 100 97 99 98 99 99 96 97 99 100 100 100 100 100 100 100 100 100 100 100 100 100 100 100 100 100 100 100 100 100 100 100 100 100 100 100 100 100 100 100
Wind_Speed
16 15 15 18 21 27 33 33 32 33 35 34 33 29 27 25 29 11 2 8 4 3 6 5 2 7 9 16 10 4 6 7 2 7 5 5 4 7 2 5 9 9 8 4 4 4 8 8 4 10 9 1 6 8
28 28 28 29 29 29 28 28 30 30 32 33 30 26 24 25 26 14 3 8 3 6 4 2 6 7 5 4 11 6 5 6 8 5 1 4 2 1 5 5 1 3 8 9 11 10 4 6 5 4 5 6 7 8
22 24 24 24 24 24 24 24 26 26 27 28 26 24 22 21 23 12 3 6 6 5 5 5 6 3 5 8 5 8 3 4 2 3 6 3 5 5 5 6 4 3 3 4 4 6 6 4 3 3 1 4 5 5
19 20 21 21 22 22 22 22 23 23 24 22 19 21 21 23 26 14 3 5 7 3 2 7 2 7 3 6 7 5 3 4 4 3 3 4 4 4 4 4 5 5 8 7 3 4 2 6 5 4 5 7 11 9
18 19 19 18 18 19 20 21 21 21 22 22 22 22 22 23 25 10 2 5 6 7 2 4 8 6 7 6 9 9 10 4 3 3 1 3 4 4 2 1 3 6 9 8 10 11 7 5 9 7 8 7 8 16
18 16 17 16 15 14 13 16 19 21 22 24 23 22 23 25 24 6 4 3 11 6 4 3 4 4 4 2 8 9 11 4 3 5 4 2 1 5 4 4 5 4 5 2 4 10 4 11 9 5 11 9 10 11
13 12 15 18 15 12 13 16 21 26 25 26 25 26 25 27 9 3 5 3 9 6 4 3 4 4 2 2 2 3 3 3 4 3 2 4 2 5 1 4 4 3 2 5 11 11 7 6 7 9 14 14 15 13
14 15 16 16 15 17 17 17 18 22 28 27 27 25 24 23 6 4 0 6 3 3 2 2 5 3 2 1 4 0 3 2 3 3 2 3 2 2 5 3 4 6 11 9 6 6 7 15 16 13 13 15 16 14
13 14 14 15 16 17 18 20 22 26 28 25 24 21 10 7 3 3 7 15 4 4 4 3 2 3 2 2 3 3 1 3 1 3 2 3 1 5 3 3 7 4 5 13 13 12 12 16 16 14 14 12 17 13
15 14 14 14 14 15 16 20 23 30 35 33 16 4 2 5 14 19 6 8 7 4 2 2 2 3 4 3 3 2 2 2 3 3 4 3 3 3 2 3 7 6 9 18 19 9 11 14 14 13 12 11 13 13
17 17 15 15 15 13 15 18 21 26 15 3 3 2 1 17 4 3 5 6 5 4 4 3 5 3 2 3 2 3 1 1 2 3 6 3 3 1 3 4 7 11 9 2 7 9 9 14 16 15 13 12 12 13
18 17 15 13 12 11 10 11 16 2 2 3 3 7 3 3 2 1 2 2 1 2 2 1 2 3 1 3 3 2 1 2 4 3 4 3 3 2 9 4 7 7 7 8 10 14 15 16 15 16 14 13 11 9
16 14 11 11 10 9 9 7 9 5 7 2 4 4 2 2 2 4 5 2 1 2 2 1 2 2 2 3 4 2 2 1 2 3 3 3 4 5 9 8 7 9 12 15 15 15 16 16 14 15 14 11 12 10
15 13 11 12 12 10 10 8 2 9 4 3 4 6 4 4 3 1 1 1 1 2 3 1 3 3 1 3 1 4 1 2 3 4 4 3 4 5 6 6 10 11 12 14 14 14 15 15 14 12 12 11 12 12
17 13 10 8 8 7 11 10 10 5 4 4 4 6 4 2 2 2 1 1 2 2 1 1 3 3 3 4 2 3 2 4 5 3 3 3 3 6 7 8 9 10 10 11 11 12 13 13 13 12 9 9 10 11
24 16 6 15 15 18 16 9 6 2 4 6 9 6 4 3 7 6 7 4 4 3 1 3 4 4 5 3 5 6 4 5 4 4 4 2 4 6 7 7 9 10 11 11 11 12 12 11 12 12 10 10 9 9
14 4 15 23 22 20 17 5 1 6 5 6 5 6 6 4 5 4 5 6 5 3 4 4 7 5 3 5 6 6 4 5 8 5 2 2 5 7 9 9 10 10 11 11 11 11 11 11 11 11 12 10 10 9
7 4 21 27 16 7 3 4 4 6 8 5 5 6 7 6 6 7 7 9 4 4 4 6 4 8 6 5 4 4 5 9 5 4 6 6 6 6 7 10 10 10 11 10 11 10 10 10 10 8 11 10 9 8
7 7 15 24 8 5 4 5 5 7 7 3 4 4 4 4 9 7 8 8 7 7 6 5 8 5 4 4 5 7 7 6 4 6 9 13 11 10 10 10 10 11 11 9 10 8 8 10 8 7 6 6 6 4
15 17 13 10 6 3 6 5 4 6 5 2 2 9 5 6 6 9 13 10 8 6 9 8 5 4 4 4 5 6 6 7 4 7 9 10 10 14 14 11 9 11 11 11 10 10 9 9 8 7 6 5 5 4
8 8 11 5 5 8 7 4 6 4 4 4 1 3 4 6 12 11 10 9 13 8 6 5 5 5 7 6 7 7 9 10 11 8 7 8 9 10 10 10 11 10 9 8 8 9 10 8 6 6 5 4 4 4
2 8 4 8 7 6 6 6 4 1 4 2 4 4 4 4 4 6 4 9 7 5 5 5 7 7 8 12 11 12 11 13 13 11 14 11 10 10 10 9 9 10 9 8 8 8 8 7 6 6 5 4 4 4
5 7 7 8 10 9 3 4 7 5 5 3 4 5 4 4 3 3 6 6 5 6 7 5 8 10 10 11 12 15 14 13 10 10 9 9 9 9 9 10 9 8 8 8 7 7 6 7 7 5 5 4 4 3
8 9 8 7 7 2 3 7 4 4 5 5 4 4 4 3 3 6 5 3 4 7 7 10 6 5 6 11 10 10 9 7 8 10 8 7 8 9 8 8 8 8 7 6 6 6 6 5 6 5 5 4 4 3
13 11 9 8 5 8 7 6 6 6 4 3 4 3 3 3 5 5 3 2 3 4 4 6 6 6 5 5 6 7 10 7 7 9 8 6 5 5 6 7 7 7 5 6 5 5 4 4 4 4 4 3 4 5
12 7 7 3 4 6 1 5 5 3 3 4 3 3 4 5 6 4 3 1 2 3 3 3 3 4 6 5 4 5 5 4 5 9 7 7 7 4 4 5 3 5 5 3 3 3 3 3 3 5 4 5 3 2
8 5 3 4 2 4 5 3 3 5 5 5 3 5 5 7 3 2 2 3 2 3 5 5 5 4 4 4 5 5 5 6 7 7 5 6 6 6 5 4 4 3 4 4 2 1 2 4 3 3 4 3 4 3
3 4 5 6 6 4 6 4 5 4 2 2 5 7 5 4 2 2 2 3 5 5 6 6 6 5 5 4 4 3 4 3 4 3 3 4 4 4 4 4 4 7 4 3 3 2 2 3 4 3 3 4 5 3
5 3 5 7 6 6 6 3 3 4 5 3 5 3 2 3 2 2 3 3 4 4 4 4 3 3 4 4 5 5 5 3 5 6 4 3 4 4 4 3 3 3 3 4 8 7 7 4 4 2 4 3 4 4
4 2 6 4 6 6 3 2 2 2 5 3 4 4 3 3 4 3 4 4 4 3 1 2 1 3 2 3 2 4 4 3 3 4 3 2 4 3 3 3 3 3 2 3 4 5 7 5 6 5 5 5 4 4
2 4 6 5 4 1 3 3 2 4 4 5 4 5 3 3 2 3 3 2 3 3 4 3 3 2 3 3 2 2 3 3 2 1 1 2 3 3 3 3 2 2 1 2 2 2 2 3 3 3 5 7 7 5
5 5 5 4 2 2 2 2 2 4 2 4 2 3 4 5 2 2 2 2 4 4 1 2 2 1 2 2 1 2 3 2 3 2 3 2 2 3 3 3 2 1 2 2 2 2 1 1 3 3 3 6 7 6
4 4 4 5 3 1 2 4 4 3 4 3 1 2 2 5 4 4 1 2 4 4 3 3 3 3 4 4 3 2 2 3 4 4 4 3 3 3 2 2 2 2 2 2 2 2 2 3 3 4 5 5 7 7
Wind_Direction
82 90 133 148 145 150 147 143 149 158 158 160 164 173 176 167 166 160 138 164 177 285 295 325 359 163 168 199 182 157 119 217 56 179 159 197 175 218 184 171 170 154 140 176 82 72 282 173 106 169 216 290 160 151
67 75 83 93 104 115 127 139 149 154 158 162 168 168 164 164 164 149 140 160 177 258 310 271 247 222 177 184 172 194 181 169 179 158 162 100 157 275 174 206 83 201 178 178 178 207 215 201 210 223 170 174 166 136
88 89 94 98 107 117 126 133 141 146 149 155 162 156 155 160 163 155 111 140 155 297 279 286 259 244 185 212 205 177 264 195 224 171 163 162 193 135 162 234 107 240 153 143 106 218 216 231 254 261 148 164 124 116
90 97 103 109 116 122 126 132 138 143 148 152 160 158 163 171 175 170 133 125 166 318 224 267 260 264 183 184 192 205 204 66 109 81 157 147 163 187 215 173 161 189 134 154 289 283 330 240 225 161 103 97 96 75
95 93 99 107 116 126 135 143 148 152 155 158 160 167 171 172 169 160 111 164 222 239 205 293 306 253 213 192 201 198 208 153 146 170 128 180 125 125 261 27 203 191 169 163 213 191 165 192 146 132 119 116 116 118
86 90 95 98 106 116 132 151 160 162 158 161 161 158 163 163 156 137 148 193 237 190 299 340 294 258 243 182 227 199 203 148 148 149 202 257 181 128 164 204 276 202 202 174 248 138 79 113 106 102 117 117 106 107
108 115 107 116 134 146 141 138 163 173 162 162 158 163 163 158 150 185 128 225 178 160 168 245 260 261 351 212 145 126 130 144 137 164 155 158 217 105 40 205 198 93 42 73 112 101 65 162 158 122 116 111 104 97
113 103 101 98 92 110 114 121 132 155 159 156 153 156 156 161 123 270 139 184 115 67 46 245 254 315 63 19 149 17 124 97 31 133 53 156 96 120 215 185 134 111 108 80 23 34 102 111 109 111 115 121 111 111
108 108 109 103 101 108 119 115 106 119 149 148 149 143 142 166 125 218 138 163 218 158 195 206 225 257 42 266 194 91 81 90 23 112 145 117 252 220 171 176 145 207 216 130 93 87 113 116 119 121 121 117 118 122
126 124 119 116 113 111 110 116 122 122 124 133 143 154 121 173 134 102 176 174 203 217 182 215 297 293 52 349 12 73 31 134 139 216 119 77 261 351 302 200 106 115 138 122 110 123 131 118 125 129 126 123 119 117
136 139 139 138 135 132 125 122 125 132 131 56 87 77 186 140 67 141 184 185 183 166 178 205 184 166 340 76 54 50 265 20 166 193 136 169 232 129 16 318 137 130 160 123 105 133 127 131 131 124 116 109 112 121
146 150 151 153 141 119 99 111 133 74 135 146 121 95 105 69 65 279 310 331 79 165 127 198 175 117 151 103 95 7 277 70 255 165 105 166 13 18 119 95 95 125 107 103 119 119 121 118 122 119 118 118 109 113
157 167 146 91 92 100 109 95 225 340 37 311 78 102 130 28 140 177 187 96 208 294 324 341 73 104 70 53 80 156 105 356 282 22 69 30 350 45 81 108 98 99 105 105 99 95 97 103 108 116 116 109 118 122
164 157 155 139 130 125 108 91 340 359 11 19 44 65 58 30 62 53 338 30 323 294 335 20 60 81 104 69 137 83 337 36 49 36 11 360 31 65 68 89 107 101 97 101 105 107 109 112 107 103 115 127 131 122
183 180 170 156 145 143 120 108 81 38 9 39 30 60 53 19 23 322 260 82 329 295 305 77 65 67 33 82 36 95 69 70 44 34 345 329 83 96 96 102 105 101 100 98 102 101 102 104 105 103 98 105 103 103
124 112 139 144 138 116 100 63 49 336 45 32 31 18 356 11 22 15 5 11 2 323 304 34 69 51 40 37 51 12 42 43 358 330 312 344 88 93 98 97 94 93 95 101 103 105 104 103 107 104 93 90 88 101
65 59 122 111 113 90 54 65 80 48 52 43 34 13 359 35 31 7 335 343 313 16 35 31 49 14 352 47 39 15 26 341 319 310 327 54 94 99 97 94 95 99 99 100 103 99 97 102 103 102 103 104 102 95
67 92 120 121 107 94 56 21 77 66 56 30 48 13 43 32 5 13 355 357 20 56 39 52 39 37 32 36 17 350 315 313 311 18 36 52 74 82 95 102 98 99 98 93 93 97 103 106 106 107 114 112 104 101
100 100 163 147 135 125 100 39 48 79 38 39 10 9 49 50 32 22 22 17 27 48 80 57 51 34 31 360 322 322 328 331 325 35 39 35 42 62 69 71 74 81 85 84 89 84 80 80 82 86 94 102 100 98
101 69 83 136 162 102 73 40 53 71 51 118 73 44 48 30 4 29 33 25 36 59 48 51 37 17 8 352 331 327 337 336 344 58 43 31 31 48 50 60 65 72 75 75 71 74 79 71 59 59 60 70 94 95
43 358 30 63 65 58 72 39 60 81 102 67 15 45 73 42 38 30 33 5 41 40 58 37 36 33 17 13 5 9 22 27 41 42 49 51 36 48 53 53 59 60 63 61 66 60 60 64 61 56 54 49 53 70
16 23 59 25 71 57 63 19 94 108 73 119 43 45 45 37 20 23 35 32 55 35 32 24 22 21 26 25 24 26 36 46 48 52 48 48 47 45 45 45 57 63 59 56 58 61 58 50 50 47 44 32 44 44
38 43 45 36 65 53 310 8 57 19 65 351 27 41 34 52 48 33 68 40 44 10 12 29 49 45 45 36 39 38 37 48 52 51 52 55 56 52 53 46 42 56 58 45 44 52 50 39 41 38 28 29 25 16
39 54 53 56 57 90 18 19 22 54 43 33 50 46 43 59 43 56 62 40 2 359 16 25 31 44 38 38 38 30 24 39 57 51 44 57 62 52 52 55 50 47 43 48 46 44 39 36 29 32 23 29 23 19
63 2 62 14 5 61 41 21 10 49 57 18 69 47 44 54 72 69 82 70 20 10 8 21 40 38 49 43 35 32 26 36 57 64 26 33 61 77 69 61 54 44 31 53 39 37 17 19 24 25 22 24 2 346
70 356 49 33 349 75 34 63 45 54 53 47 26 29 45 66 62 57 66 75 2 2 350 14 41 63 54 36 38 26 11 17 68 71 41 31 40 58 61 58 33 40 25 67 87 40 1 351 6 3 342 334 325 344
57 3 1 36 75 88 58 44 63 69 56 34 359 34 56 65 78 78 86 28 72 36 41 33 40 52 60 55 46 33 34 47 68 84 80 58 51 49 61 60 20 348 358 20 33 37 311 309 304 291 287 301 269 250
131 54 66 312 49 24 96 55 47 48 17 12 63 39 100 142 121 25 18 95 94 87 75 61 52 51 57 48 28 33 45 49 88 80 71 58 40 42 30 17 11 16 8 2 338 335 268 259 279 278 271 273 290 273
43 338 74 27 36 42 41 80 66 47 357 73 100 86 85 63 349 343 14 38 69 86 82 83 37 30 51 49 43 34 32 45 79 58 46 341 343 326 9 354 348 352 353 349 335 341 333 12 344 277 291 282 293 305
356 25 85 49 63 50 335 57 76 311 28 72 93 88 62 37 5 8 47 49 69 84 125 114 9 73 98 80 27 16 16 36 83 126 148 255 248 285 314 316 319 311 339 9 355 334 353 18 0 6 5 352 348 341
10 62 68 58 83 76 162 184 102 81 51 46 26 91 131 146 10 16 45 39 83 75 70 43 29 24 88 66 108 77 342 316 11 334 243 263 275 290 300 297 285 310 350 8 358 1 349 1 7 348 345 348 336 337
33 61 110 97 101 359 25 36 89 81 48 66 23 48 21 48 43 305 325 75 49 49 329 146 120 280 225 217 221 236 210 269 293 283 306 280 308 284 290 306 331 345 360 6 346 337 346 328 324 332 323 326 328 327
55 48 49 79 67 137 331 70 40 59 39 70 48 136 153 146 181 235 316 80 148 177 217 226 223 206 191 183 182 222 291 263 274 286 305 277 261 315 320 337 354 14 20 12 3 1 346 328 313 313 316 317 316 317